Погода в Высоцком

Россия / Ставропольский край     45°01′28″N   42°54′12″E
темп.,
°C
ветер,
м/с
пор.,
м/с
влажн.,
%
обл.,
%
осадки,
мм/ч
давл.,
гПа
погр.,
м
5 августа, чт
чт500:00+22юз2268100 0.3 101536
03:00+22с2267100 0.5 101411
06:00+21ссв26765 0.1 1016204
09:00+27в34553 1.5 1015651
12:00+31в443974 0.0 10141662
15:00+33в443226 0.0 10122475
18:00+32всв353593 0.0 1011559
21:00+27св3943100 0.1 1012232
6 августа, пт
пт600:00+28в814322 0.0 1011632
03:00+25в715390 0.0 1011495
06:00+24вюв716410 0.0 1011546
09:00+29вюв912320 0.0 10101006
12:00+33вюв911260 0.0 10091944
15:00+35вюв911240 0.0 10072594
18:00+33в811280 0.0 10061020
21:00+27вюв815390 0.0 1007610
7 августа, сб
сб700:00+24вюв71649100 0.0 1007517
03:00+22вюв6146130 0.0 1007384
06:00+22вюв61367100 0.0 1006394
09:00+28вюв7114288 0.0 1006832
12:00+34вюв793114 0.0 10041419
15:00+37вюв67243 0.0 10032191
18:00+36в81120100 0.0 1002932
21:00+27зюз71049100 0.0 1007413
8 августа, вс
вс800:00+23зюз2370100 0.0 100782
03:00+24зюз2365100 0.0 1008139
06:00+24з51064100 0.1 1009385
09:00+26сз6105844 0.5 1010630
12:00+32сз553192 0.0 10091649
15:00+32сз5630100 0.0 10092186
18:00+32ссз56357 0.0 10091093
21:00+25сз34516 0.2 101268
9 августа, пн
пн900:00+23з4764100 0.1 1012152
03:00+21зюз410760 0.1 1012255
06:00+21з410750 0.0 1013301
09:00+27з67510 0.0 1013877
12:00+32з56350 0.0 10121753
15:00+34зсз562779 0.0 10112282
18:00+32зсз4628100 0.0 1011367
21:00+26юз2235100 0.0 101316